Radiation Dose at Monitoring Post of Fukushima Daini Nuclear Power Station
Date,Time,MP-1(microSv/h),MP-2(microSv/h),MP-3(microSv/h),MP-4(microSv/h),MP-5(microSv/h),MP-6(microSv/h),MP-7(microSv/h),Wind Direction,Wind Velocity(m/s),Rain
2021/12/27,00:00,0.161,0.147,0.231,0.224,0.227,0.124,0.079,west,10.0,No
2021/12/27,00:10,0.161,0.146,0.229,0.223,0.227,0.125,0.080,west,8.7,No
2021/12/27,00:20,0.160,0.146,0.229,0.222,0.226,0.125,0.080,west-northwest,11.5,No
2021/12/27,00:30,0.160,0.147,0.229,0.224,0.228,0.125,0.080,west,10.6,No
2021/12/27,00:40,0.161,0.147,0.230,0.224,0.228,0.125,0.080,west-northwest,8.8,No
2021/12/27,00:50,0.161,0.147,0.230,0.224,0.228,0.125,0.080,west-northwest,7.9,No
2021/12/27,01:00,0.160,0.147,0.230,0.224,0.227,0.125,0.080,west,8.5,No
2021/12/27,01:10,0.161,0.147,0.230,0.224,0.226,0.125,0.080,west-northwest,7.9,No
2021/12/27,01:20,0.161,0.146,0.229,0.223,0.228,0.124,0.080,west-northwest,8.5,No
2021/12/27,01:30,0.160,0.147,0.230,0.224,0.226,0.125,0.080,west,9.5,No
2021/12/27,01:40,0.161,0.147,0.229,0.223,0.228,0.125,0.080,west-northwest,7.5,No
2021/12/27,01:50,0.160,0.146,0.228,0.223,0.226,0.125,0.080,west,6.4,No
2021/12/27,02:00,0.161,0.146,0.228,0.223,0.226,0.125,0.079,northwest,2.3,No
2021/12/27,02:10,0.161,0.146,0.229,0.223,0.228,0.124,0.079,northwest,1.9,No
2021/12/27,02:20,0.160,0.146,0.229,0.223,0.227,0.124,0.080,west-northwest,2.1,No
2021/12/27,02:30,0.160,0.147,0.229,0.222,0.227,0.125,0.080,west-northwest,2.3,No
2021/12/27,02:40,0.160,0.146,0.229,0.223,0.226,0.124,0.080,northwest,1.7,No
2021/12/27,02:50,0.160,0.147,0.230,0.224,0.226,0.124,0.079,west-northwest,2.5,No
2021/12/27,03:00,0.160,0.146,0.229,0.225,0.227,0.124,0.080,northwest,2.4,No
2021/12/27,03:10,0.159,0.146,0.228,0.224,0.226,0.125,0.079,northwest,1.9,No
2021/12/27,03:20,0.160,0.147,0.229,0.224,0.227,0.124,0.079,west,3.7,No
2021/12/27,03:30,0.160,0.146,0.228,0.223,0.227,0.124,0.080,west,4.5,No
2021/12/27,03:40,0.160,0.147,0.228,0.223,0.227,0.124,0.079,west,4.0,No
2021/12/27,03:50,0.161,0.146,0.229,0.224,0.226,0.124,0.080,west,2.8,No
2021/12/27,04:00,0.160,0.147,0.228,0.223,0.226,0.124,0.079,west,3.3,No
2021/12/27,04:10,0.160,0.146,0.228,0.224,0.226,0.124,0.080,west-southwest,1.3,No
2021/12/27,04:20,0.160,0.147,0.228,0.223,0.227,0.126,0.080,west-southwest,1.3,No
2021/12/27,04:30,0.159,0.147,0.227,0.223,0.226,0.125,0.079,west,2.4,No
2021/12/27,04:40,0.160,0.146,0.227,0.223,0.227,0.124,0.080,west,2.7,No
2021/12/27,04:50,0.161,0.146,0.229,0.223,0.226,0.124,0.079,west,5.3,No
2021/12/27,05:00,0.160,0.146,0.229,0.224,0.226,0.124,0.080,west,4.5,No
2021/12/27,05:10,0.160,0.146,0.228,0.224,0.227,0.124,0.079,west-southwest,3.5,No
2021/12/27,05:20,0.160,0.146,0.228,0.223,0.227,0.124,0.080,west,3.0,No
2021/12/27,05:30,0.160,0.146,0.229,0.223,0.227,0.124,0.079,west,3.4,No
2021/12/27,05:40,0.160,0.147,0.228,0.223,0.226,0.123,0.079,west-southwest,4.8,No
2021/12/27,05:50,0.160,0.147,0.229,0.222,0.226,0.125,0.080,west-southwest,5.0,No
2021/12/27,06:00,0.160,0.146,0.228,0.223,0.227,0.124,0.079,west-southwest,2.4,No
2021/12/27,06:10,0.160,0.146,0.229,0.223,0.227,0.124,0.079,southwest,3.0,No
2021/12/27,06:20,0.160,0.146,0.229,0.223,0.226,0.124,0.079,southwest,1.9,No
2021/12/27,06:30,0.160,0.146,0.228,0.224,0.227,0.124,0.079,southwest,3.1,No
2021/12/27,06:40,0.160,0.146,0.229,0.224,0.226,0.124,0.080,south-southwest,4.0,No
2021/12/27,06:50,0.160,0.146,0.228,0.223,0.226,0.124,0.080,southwest,3.4,No
2021/12/27,07:00,0.159,0.146,0.228,0.222,0.227,0.125,0.079,southwest,3.5,No
2021/12/27,07:10,0.159,0.146,0.229,0.223,0.227,0.124,0.079,southwest,1.6,No
2021/12/27,07:20,0.160,0.146,0.229,0.224,0.226,0.125,0.080,south-southwest,1.0,No
2021/12/27,07:30,0.161,0.147,0.228,0.223,0.226,0.125,0.080,south-southwest,1.3,No
2021/12/27,07:40,0.160,0.146,0.228,0.224,0.227,0.124,0.080,-,CALM,No
2021/12/27,07:50,0.160,0.147,0.229,0.222,0.227,0.125,0.079,southwest,0.6,No
2021/12/27,08:00,0.160,0.146,0.229,0.222,0.226,0.125,0.079,south,1.8,No
2021/12/27,08:10,0.160,0.146,0.230,0.223,0.227,0.124,0.080,south,1.5,No
2021/12/27,08:20,0.161,0.146,0.228,0.223,0.226,0.123,0.079,south,0.9,No
2021/12/27,08:30,0.160,0.146,0.229,0.222,0.226,0.123,0.079,south-southwest,2.0,No
2021/12/27,08:40,0.160,0.146,0.229,0.223,0.226,0.123,0.079,south,0.7,No
2021/12/27,08:50,0.160,0.146,0.227,0.223,0.227,0.123,0.079,north,1.0,No
2021/12/27,09:00,0.160,0.146,0.229,0.222,0.226,0.124,0.079,west-southwest,0.7,No
2021/12/27,09:10,0.159,0.145,0.228,0.223,0.226,0.124,0.078,south-southwest,2.1,No
2021/12/27,09:20,0.159,0.146,0.228,0.223,0.226,0.124,0.079,west,1.0,No
2021/12/27,09:30,0.160,0.146,0.228,0.223,0.226,0.124,0.079,west-southwest,4.2,No
2021/12/27,09:40,0.160,0.146,0.228,0.223,0.225,0.124,0.078,south-southwest,1.5,No
2021/12/27,09:50,0.160,0.146,0.229,0.222,0.226,0.125,0.080,west,3.0,No
2021/12/27,10:00,0.159,0.145,0.228,0.222,0.226,0.125,0.079,west-northwest,3.0,No
2021/12/27,10:10,0.159,0.147,0.228,0.222,0.226,0.124,0.079,west,6.0,No
2021/12/27,10:20,0.159,0.145,0.228,0.222,0.226,0.124,0.078,west,6.2,No
2021/12/27,10:30,0.159,0.144,0.229,0.223,0.225,0.124,0.079,west-southwest,5.1,No
2021/12/27,10:40,0.159,0.146,0.228,0.223,0.225,0.123,0.079,west-southwest,5.8,No
2021/12/27,10:50,0.159,0.145,0.227,0.221,0.225,0.124,0.079,west,6.6,No
2021/12/27,11:00,0.158,0.145,0.227,0.222,0.226,0.124,0.079,west-northwest,4.9,No
2021/12/27,11:10,0.160,0.146,0.229,0.222,0.226,0.124,0.079,west,8.4,No
2021/12/27,11:20,0.159,0.146,0.228,0.223,0.227,0.124,0.080,west-northwest,5.4,No
2021/12/27,11:30,0.159,0.147,0.228,0.224,0.225,0.124,0.079,west,5.9,No
2021/12/27,11:40,0.159,0.147,0.228,0.222,0.225,0.124,0.079,west-southwest,7.0,No
2021/12/27,11:50,0.160,0.146,0.228,0.222,0.227,0.125,0.080,west,6.7,No
2021/12/27,12:00,0.160,0.146,0.229,0.224,0.227,0.124,0.079,west,5.4,No
2021/12/27,12:10,0.159,0.146,0.228,0.223,0.226,0.124,0.080,west-northwest,4.7,No
2021/12/27,12:20,0.158,0.146,0.228,0.223,0.228,0.124,0.079,west,4.3,No
2021/12/27,12:30,0.160,0.147,0.227,0.223,0.227,0.124,0.079,west,6.0,No
2021/12/27,12:40,0.158,0.146,0.228,0.222,0.226,0.125,0.080,west,9.3,No
2021/12/27,12:50,0.159,0.146,0.228,0.222,0.228,0.125,0.078,west,5.2,No
2021/12/27,13:00,0.160,0.147,0.228,0.223,0.227,0.124,0.079,west,4.2,No
2021/12/27,13:10,0.159,0.146,0.227,0.224,0.226,0.125,0.079,west,6.0,No
2021/12/27,13:20,0.159,0.146,0.228,0.223,0.228,0.124,0.079,west,7.8,No
2021/12/27,13:30,0.160,0.146,0.230,0.223,0.228,0.125,0.080,west,7.0,No
2021/12/27,13:40,0.159,0.146,0.230,0.223,0.227,0.124,0.080,west-southwest,7.5,No
2021/12/27,13:50,0.159,0.146,0.228,0.223,0.226,0.125,0.079,west,7.1,No
2021/12/27,14:00,0.160,0.146,0.227,0.222,0.226,0.125,0.078,west-northwest,7.0,No
2021/12/27,14:10,0.160,0.146,0.229,0.223,0.225,0.125,0.078,west-northwest,4.8,No
2021/12/27,14:20,0.160,0.146,0.229,0.222,0.226,0.124,0.079,west,7.6,No
2021/12/27,14:30,0.159,0.147,0.228,0.224,0.228,0.125,0.079,west,9.2,No
2021/12/27,14:40,0.160,0.145,0.228,0.223,0.226,0.125,0.079,west-northwest,7.9,No
2021/12/27,14:50,0.159,0.145,0.229,0.222,0.227,0.124,0.080,west,8.1,No
2021/12/27,15:00,0.160,0.147,0.228,0.223,0.226,0.124,0.080,west-northwest,7.8,No
2021/12/27,15:10,0.159,0.147,0.228,0.223,0.227,0.125,0.079,west,8.1,No
2021/12/27,15:20,0.160,0.147,0.228,0.223,0.227,0.123,0.079,west,10.3,No
2021/12/27,15:30,0.160,0.147,0.229,0.224,0.227,0.124,0.080,west,5.7,No
2021/12/27,15:40,0.160,0.146,0.229,0.224,0.227,0.124,0.080,west,4.7,No
2021/12/27,15:50,0.159,0.148,0.228,0.223,0.227,0.123,0.079,west-northwest,6.1,No
2021/12/27,16:00,0.161,0.147,0.229,0.224,0.226,0.125,0.080,west,6.3,No
2021/12/27,16:10,0.160,0.146,0.229,0.223,0.226,0.124,0.080,west,6.8,No
2021/12/27,16:20,0.160,0.146,0.230,0.224,0.227,0.124,0.079,west,4.5,No
2021/12/27,16:30,0.159,0.147,0.229,0.222,0.226,0.125,0.079,west-southwest,5.1,No
2021/12/27,16:40,0.160,0.146,0.229,0.223,0.226,0.124,0.080,west,7.0,No
2021/12/27,16:50,0.161,0.147,0.229,0.223,0.227,0.125,0.080,west,5.3,No
2021/12/27,17:00,0.160,0.147,0.229,0.224,0.227,0.125,0.078,west,6.1,No
2021/12/27,17:10,0.161,0.146,0.229,0.224,0.228,0.125,0.080,west-southwest,5.2,No
2021/12/27,17:20,0.159,0.146,0.229,0.223,0.226,0.125,0.080,west-southwest,4.1,No
2021/12/27,17:30,0.159,0.147,0.229,0.224,0.226,0.125,0.079,west-southwest,6.0,No
2021/12/27,17:40,0.160,0.147,0.228,0.223,0.226,0.123,0.079,west,6.6,No
2021/12/27,17:50,0.159,0.146,0.228,0.224,0.227,0.124,0.079,west-southwest,5.7,No
2021/12/27,18:00,0.160,0.146,0.228,0.223,0.226,0.125,0.080,west-southwest,6.1,No
2021/12/27,18:10,0.160,0.146,0.229,0.224,0.226,0.124,0.079,west,4.6,No
2021/12/27,18:20,0.161,0.147,0.228,0.225,0.227,0.125,0.079,west-southwest,5.6,No
2021/12/27,18:30,0.160,0.147,0.229,0.223,0.227,0.124,0.079,west-southwest,4.7,No
2021/12/27,18:40,0.159,0.147,0.229,0.223,0.228,0.125,0.078,west,6.7,No
2021/12/27,18:50,0.160,0.146,0.229,0.224,0.226,0.124,0.080,west-southwest,4.9,No
2021/12/27,19:00,0.159,0.147,0.229,0.224,0.228,0.124,0.079,west,7.6,No
2021/12/27,19:10,0.159,0.146,0.228,0.223,0.226,0.124,0.080,west,5.5,No
2021/12/27,19:20,0.160,0.146,0.228,0.225,0.227,0.125,0.079,west,6.3,No
2021/12/27,19:30,0.160,0.147,0.229,0.224,0.226,0.125,0.079,west-southwest,6.4,No
2021/12/27,19:40,0.160,0.147,0.229,0.223,0.227,0.124,0.079,west-southwest,7.0,No
2021/12/27,19:50,0.159,0.146,0.228,0.223,0.227,0.124,0.080,west,7.3,No
2021/12/27,20:00,0.159,0.146,0.229,0.222,0.227,0.125,0.079,west-southwest,7.0,No
2021/12/27,20:10,0.159,0.147,0.229,0.224,0.227,0.125,0.079,west,5.8,No
2021/12/27,20:20,0.160,0.147,0.229,0.224,0.227,0.125,0.080,west-southwest,6.0,No
2021/12/27,20:30,0.159,0.146,0.229,0.224,0.226,0.124,0.078,west-southwest,6.5,No
2021/12/27,20:40,0.160,0.146,0.228,0.223,0.227,0.125,0.079,west,3.4,No
2021/12/27,20:50,0.160,0.146,0.228,0.223,0.227,0.125,0.079,west,4.1,No
2021/12/27,21:00,0.160,0.146,0.229,0.224,0.227,0.125,0.080,west,4.6,No
2021/12/27,21:10,0.160,0.146,0.229,0.222,0.227,0.125,0.079,west,7.5,No
2021/12/27,21:20,0.160,0.146,0.230,0.224,0.226,0.125,0.080,west,7.3,No
2021/12/27,21:30,0.160,0.146,0.230,0.223,0.226,0.125,0.079,west-southwest,6.5,No
2021/12/27,21:40,0.160,0.148,0.229,0.224,0.225,0.125,0.079,west,7.3,No
2021/12/27,21:50,0.159,0.146,0.228,0.223,0.228,0.124,0.079,west,6.7,No
2021/12/27,22:00,0.160,0.146,0.228,0.225,0.226,0.125,0.080,west,5.0,No
2021/12/27,22:10,0.160,0.147,0.229,0.224,0.226,0.125,0.079,west,5.5,No
2021/12/27,22:20,0.160,0.146,0.230,0.224,0.227,0.125,0.079,west,6.5,No
2021/12/27,22:30,0.160,0.147,0.229,0.223,0.227,0.124,0.079,west,5.5,No
2021/12/27,22:40,0.160,0.147,0.228,0.225,0.226,0.124,0.080,west,7.0,No
2021/12/27,22:50,0.160,0.147,0.229,0.223,0.226,0.125,0.079,west,6.6,No
2021/12/27,23:00,0.161,0.146,0.228,0.224,0.227,0.125,0.080,west,7.7,No
2021/12/27,23:10,0.160,0.146,0.229,0.224,0.226,0.124,0.079,west,10.0,No
2021/12/27,23:20,0.160,0.147,0.229,0.224,0.226,0.125,0.080,west,6.4,No
2021/12/27,23:30,0.160,0.148,0.230,0.224,0.227,0.124,0.079,west-northwest,6.6,No
2021/12/27,23:40,0.160,0.146,0.229,0.224,0.227,0.125,0.079,west-northwest,7.6,No
2021/12/27,23:50,0.160,0.147,0.229,0.224,0.227,0.125,0.080,west,7.3,No
